Flag Weather past 2 weeks in Crailsheim, Baden-Württemberg, Germany

Now
36 °F

Passing clouds.


Feels Like: 32 °F
Forecast: 36 / 50 °F
Wind: 5 mph from Southeast

Location: Niederstetten

Current Time: Nov 21, 2014 at 3:41:00 AM

Latest Report: Nov 21, 2014 at 2:20 AM


Visibility: 4 mi

Pressure: 30.24 "Hg

Humidity: 100%

Dew point: 36 °F

Location of CrailsheimLocation

Historic Weather in Crailsheim — Graph

°F

Crailsheim temperature yesterday

Maximum temperature yesterday: 45 °F (at 2:20 PM)
Minimum temperature yesterday: 37 °F (at 6:20 AM)
Average temperature yesterday: 40 °F

Past Weeks' High & Low Weather Summary

 TemperatureHumidityPressure
High54 °F (Nov 8, 12:20 PM)100% (Nov 6, 4:20 AM)30.30 "Hg (Nov 6, 4:20 AM)
Low32 °F (Nov 7, 7:20 AM)63% (Nov 8, 1:20 PM)29.47 "Hg (Nov 16, 3:20 AM)
Average43 °F94%29.83 "Hg
* Reported Nov 6 2:20 AM — Nov 21 2:20 AM, Crailsheim, Weather by CustomWeather, © 2014

Note: Actual official high and low records may vary slightly from our data, if they occured in-between our weather recording intervals... More about our weather records

Advertising

Crailsheim weather history for previous 24 hours

 ConditionsComfort  
Time TempWeatherWind HumidityBarometerVisibility
2:20 AM
Nov 21
36 °FPassing clouds.5 mph100%30.24 "Hg4 mi
1:20 AM37 °FOvercast.8 mph100%30.24 "Hg5 mi
12:20 AM39 °FOvercast.3 mph93%30.24 "Hg5 mi
11:20 PM
Nov 20
39 °FPassing clouds.5 mph93%30.27 "Hg5 mi
10:20 PM37 °FPassing clouds.5 mph100%30.27 "Hg5 mi
9:20 PM37 °FPassing clouds.9 mph100%30.27 "Hg6 mi
8:20 PM39 °FOvercast.6 mph93%30.27 "HgN/A
7:20 PM41 °FPassing clouds.5 mph93%30.27 "HgN/A
6:20 PM41 °FPassing clouds.6 mph93%30.27 "HgN/A
5:20 PM41 °FOvercast.6 mph93%30.27 "HgN/A
4:20 PM43 °FOvercast.6 mph87%30.27 "HgN/A
3:20 PM45 °FBroken clouds.5 mph76%30.27 "HgN/A
2:20 PM45 °FScattered clouds.6 mph76%30.27 "HgN/A
1:20 PM43 °FScattered clouds.7 mph87%30.27 "HgN/A
12:20 PM43 °FScattered clouds.6 mph87%30.27 "HgN/A
11:20 AM43 °FBroken clouds.5 mph87%30.30 "Hg5 mi
10:20 AM41 °FBroken clouds.5 mph100%30.30 "Hg4 mi
9:20 AM39 °FFog.3 mph100%30.27 "Hg3 mi
9:02 AM39 °FFog.3 mph100%30.30 "Hg3 mi
8:20 AM37 °FFog.5 mph100%30.27 "Hg0 mi
7:20 AM37 °FFog.7 mph100%30.27 "Hg0 mi
6:20 AM37 °FFog.5 mph93%30.27 "Hg0 mi
5:20 AM39 °FFog.3 mph100%30.27 "Hg0 mi
4:20 AM41 °FFog.2 mph100%30.27 "Hg2 mi
3:20 AM41 °FFog.3 mph93%30.27 "Hg2 mi
Weather by CustomWeather, © 2014

See weather overviewHow to use our weather pages